Theta_e
315 315 318 317 315 314 314 314 315 314 313 311 312 312 313 315 314 311 310 309 307 307 305 303 302 302 305 304 304 306 307 305 304 305 306 308 307 307 308 312 311 316 322 323
314 314 315 314 313 313 314 315 315 312 311 311 311 312 312 313 313 312 311 309 308 307 305 302 301 301 301 303 305 306 306 305 306 306 308 309 309 309 309 312 313 318 321 326
313 313 312 313 312 312 315 316 311 312 312 312 312 314 315 313 313 312 310 310 308 307 303 301 301 300 300 303 305 307 306 307 308 309 311 311 310 309 310 314 315 318 319 323
313 311 311 311 312 311 312 311 312 312 312 314 313 310 315 313 312 311 311 310 308 305 302 301 300 299 300 303 306 307 307 307 309 312 313 312 311 310 313 315 318 318 321 323
312 311 310 312 312 310 311 309 311 312 312 313 315 311 314 311 312 311 310 310 308 304 301 300 300 298 301 303 305 307 307 308 310 313 313 312 313 315 316 318 319 319 321 323
311 309 310 311 309 309 310 311 311 311 312 312 313 312 311 310 309 311 311 309 306 302 300 300 299 298 301 303 306 306 308 307 310 312 314 315 315 315 317 319 320 322 322 323
311 310 309 309 310 309 310 311 315 315 312 316 311 310 310 316 311 310 310 308 304 302 300 299 298 297 301 302 306 306 307 307 308 312 314 314 315 316 314 317 320 321 322 322
313 313 310 308 310 312 310 311 314 315 316 312 309 309 311 311 310 310 309 307 303 301 300 299 298 297 300 302 304 306 307 306 307 310 312 314 315 315 316 317 319 319 320 320
314 312 308 309 309 308 311 308 309 309 306 310 310 311 311 308 308 308 308 307 303 302 300 299 298 297 299 302 302 305 307 308 306 306 309 311 313 315 314 315 316 316 315 316
311 313 309 308 308 308 309 308 308 307 310 315 313 311 308 309 307 307 307 307 305 302 300 299 297 297 298 302 302 305 306 307 308 307 307 308 310 311 311 312 312 313 312 312
309 310 309 308 308 309 307 308 309 308 309 312 312 310 308 310 308 308 307 308 306 302 300 299 297 297 297 301 302 304 305 306 306 308 309 310 310 310 310 310 309 310 309 309
309 311 309 309 306 306 308 308 308 309 311 308 309 308 308 308 308 309 309 309 306 302 301 299 297 297 297 300 302 303 303 305 306 307 307 308 308 308 308 309 309 309 308 308
308 307 309 310 306 306 307 308 309 308 306 310 310 310 306 307 308 309 309 309 305 302 301 299 297 297 296 298 302 302 302 303 303 304 306 307 307 306 306 306 306 305 304 304
307 308 310 314 309 307 306 307 307 308 308 309 309 307 306 306 306 306 308 309 304 302 301 299 298 297 296 297 299 302 301 301 301 303 304 305 304 304 303 303 303 302 301 300
307 304 306 305 306 305 307 308 307 308 308 307 310 308 308 306 305 307 308 309 305 301 300 300 298 297 296 296 297 300 301 301 300 300 300 300 299 299 298 297 297 297 297 296
306 304 303 301 305 304 305 304 306 307 308 308 308 308 308 309 310 308 308 308 307 302 301 300 299 298 297 296 297 298 299 299 298 297 297 297 297 297 296 296 296 295 295 294
305 305 306 307 300 298 300 302 304 306 307 308 308 309 308 307 306 308 308 308 307 304 302 301 300 299 298 296 296 297 297 297 297 297 296 296 296 296 295 295 294 294 294 294
304 305 307 308 304 309 311 303 303 305 307 307 308 309 308 309 310 310 310 309 308 307 303 302 301 300 298 296 296 296 297 297 296 296 296 295 295 295 294 294 294 294 294 294
304 305 308 307 307 309 310 305 302 303 305 305 307 307 308 309 308 308 309 309 308 308 306 304 303 302 299 297 296 296 296 296 296 296 296 295 295 294 294 294 294 294 294 294
304 304 308 302 306 308 311 301 302 304 307 306 306 307 307 306 306 306 308 308 307 307 306 304 303 302 300 298 296 296 296 296 296 296 296 295 295 294 294 294 294 295 294 294
305 305 307 307 308 304 306 299 301 309 312 303 304 307 307 306 307 308 308 308 307 307 305 304 304 302 302 299 297 296 296 296 296 296 295 295 294 294 294 294 294 294 294 294
306 306 307 308 309 309 301 298 304 306 303 301 302 305 307 308 307 306 304 307 306 306 305 304 304 302 302 300 298 296 296 296 296 295 295 295 294 294 294 294 293 294 294 294
306 305 306 306 307 304 299 303 303 303 301 302 302 302 304 306 306 306 305 304 305 305 305 304 304 303 302 301 299 297 296 296 295 295 295 295 294 294 293 294 294 294 294 294
301 303 303 304 304 304 305 305 304 304 303 303 303 304 302 303 304 305 303 302 303 304 304 304 303 303 303 301 300 298 296 296 295 295 295 295 294 294 293 293 293 294 294 294
300 301 301 302 302 303 304 304 306 307 306 304 305 305 304 302 302 302 303 302 302 302 303 303 304 304 304 302 301 299 297 296 295 295 295 295 295 294 293 293 293 294 293 293
301 300 304 304 304 305 307 308 308 307 308 309 306 308 307 306 303 301 301 301 301 302 302 303 303 303 304 303 301 300 299 296 295 295 295 295 295 294 293 293 293 293 293 293
Wind_Speed
2 3 4 6 1 4 5 4 5 4 6 2 7 12 8 9 15 10 13 7 8 10 13 16 18 19 20 27 32 34 38 34 29 27 25 22 21 16 16 18 21 22 28 29
2 5 5 8 4 2 3 3 4 4 4 2 8 16 13 8 10 13 13 6 9 12 14 16 19 21 22 27 30 36 39 34 30 25 23 22 18 15 13 12 14 24 28 29
5 4 4 3 3 3 4 1 3 4 6 7 8 8 2 2 2 12 11 10 9 9 13 15 18 21 23 27 30 36 36 31 29 22 21 17 13 12 11 15 16 24 26 27
5 6 5 3 3 2 3 4 4 4 6 3 3 5 5 3 6 8 13 12 9 8 9 12 16 19 21 25 29 35 33 28 23 21 17 11 7 7 3 11 16 23 26 24
1 5 4 4 0 3 2 1 2 3 4 6 1 1 6 1 5 8 11 14 8 8 7 10 14 17 19 24 29 31 33 27 19 17 14 12 7 6 9 12 14 19 24 26
3 3 3 2 6 4 4 2 5 3 3 1 4 3 5 4 5 3 9 11 9 6 4 7 11 15 18 21 28 31 32 28 20 16 12 10 7 4 4 10 19 22 22 19
4 5 3 3 4 2 3 3 2 3 2 4 4 2 9 4 7 6 9 12 9 6 2 6 11 15 17 21 27 29 31 28 20 16 13 13 14 11 8 18 24 19 20 19
6 3 9 7 2 2 6 2 3 4 2 3 2 6 5 4 13 7 10 13 9 5 1 4 9 12 14 18 22 23 32 30 20 15 14 12 11 20 23 23 22 22 17 18
4 4 3 2 3 2 5 4 1 1 2 1 4 7 2 5 4 9 10 11 9 7 3 1 5 8 12 15 18 23 24 28 30 20 21 25 26 19 25 26 28 26 19 20
5 2 2 3 1 2 2 1 3 2 1 4 5 4 5 6 9 8 9 15 12 10 5 1 3 6 10 13 16 19 21 23 28 36 34 34 36 38 40 38 40 38 43 43
5 1 2 3 7 7 3 3 3 0 2 3 3 5 1 4 11 12 11 18 16 14 9 5 1 4 8 11 14 15 18 21 21 30 31 36 39 40 41 43 41 43 41 41
2 1 4 6 3 4 3 6 6 4 4 2 1 7 2 5 7 14 17 18 17 16 12 8 4 3 5 9 12 13 13 21 19 22 28 35 35 34 37 35 35 33 35 33
2 1 1 4 2 2 5 5 3 3 2 6 5 5 2 3 1 3 15 19 19 18 16 12 8 5 5 8 11 14 8 10 13 15 21 25 24 26 30 30 30 29 30 30
2 1 5 4 2 3 4 6 8 6 3 4 9 8 4 7 8 9 12 20 22 21 19 15 12 9 8 8 11 13 13 8 10 12 13 16 21 22 23 25 26 26 25 25
1 5 3 5 5 5 5 5 10 16 18 8 1 14 11 10 11 20 23 20 24 24 23 20 17 14 12 12 12 14 14 12 11 14 16 19 19 20 22 23 23 22 22 22
2 2 1 4 4 7 7 9 14 19 21 19 22 27 12 20 15 20 25 27 29 29 29 25 22 18 17 16 16 16 16 15 13 13 15 16 17 17 18 19 20 20 20 19
7 4 2 4 3 5 7 19 23 16 13 23 18 30 3 6 8 21 27 32 35 34 33 31 29 24 21 20 19 19 19 18 17 15 15 16 16 17 17 17 17 18 18 17
7 6 1 3 4 5 3 2 15 20 21 23 18 23 8 13 20 21 28 36 37 36 35 34 32 28 24 22 23 23 22 21 21 19 16 15 16 16 17 17 17 17 16 16
4 5 3 3 4 11 17 6 7 9 12 22 26 29 28 17 10 18 24 31 38 36 38 37 33 31 28 27 27 26 26 24 24 23 21 19 16 15 16 17 18 17 16 15
3 2 6 3 4 7 4 1 6 5 9 12 24 26 19 15 9 11 21 37 35 35 35 38 35 35 32 30 30 30 29 28 28 26 24 22 19 16 16 17 18 18 16 15
6 3 13 10 6 9 9 6 7 5 5 7 8 18 12 10 13 3 12 21 37 35 35 37 37 39 35 33 32 33 32 32 29 28 26 24 21 20 18 18 17 17 16 15
11 12 6 6 6 15 8 6 8 2 3 7 9 8 7 20 15 10 6 16 27 35 36 37 39 40 38 36 34 35 35 31 30 29 28 26 24 22 22 21 19 18 17 16
6 8 8 13 10 0 22 5 22 8 4 6 10 11 7 11 16 15 16 15 23 31 36 37 38 40 40 38 36 36 35 34 33 32 30 28 26 25 24 23 22 21 19 18
5 9 4 4 7 16 20 24 30 29 24 16 15 13 11 12 15 20 17 16 19 27 36 36 37 41 42 41 38 34 35 36 35 33 32 30 29 28 26 25 24 22 21 20
6 12 6 9 10 18 27 31 41 39 33 30 23 20 19 15 17 17 21 21 19 21 31 36 37 40 42 42 41 37 35 37 37 35 34 33 32 31 29 28 27 25 22 21
9 8 10 10 13 19 25 33 34 32 38 37 36 30 25 24 24 20 20 23 23 23 24 34 38 38 41 43 43 41 37 37 38 38 37 36 34 34 33 31 30 29 26 25
Wind_Direction
152 251 211 229 121 31 313 327 297 327 106 294 247 261 258 219 200 227 251 239 278 303 318 322 335 334 333 337 346 348 336 333 327 323 315 311 302 290 274 262 219 199 212 214
169 234 82 80 63 321 349 17 309 284 81 236 284 283 268 235 216 214 242 257 282 303 315 330 341 339 339 348 352 349 345 340 333 327 315 306 297 273 265 228 217 197 209 211
262 84 103 127 157 237 168 171 260 275 318 245 310 282 349 58 206 199 235 252 270 293 312 331 338 348 350 355 356 355 350 344 339 334 320 313 300 275 235 198 210 202 205 208
252 108 164 182 235 193 284 52 187 300 356 298 51 284 292 243 199 223 237 241 242 274 307 331 346 354 356 2 5 3 358 353 349 356 350 341 316 289 211 214 203 202 199 205
176 159 190 217 283 159 101 69 278 328 288 321 84 67 272 168 250 225 218 221 214 264 316 343 351 356 4 13 12 6 8 2 4 10 32 37 17 335 310 208 197 195 199 201
72 352 240 35 74 37 96 233 206 263 239 305 203 150 276 200 212 206 208 187 201 249 316 346 354 5 14 20 22 18 9 12 14 34 39 47 12 353 84 181 174 182 188 194
149 191 107 161 136 163 239 265 324 340 2 236 190 202 250 222 170 178 170 173 189 236 298 359 4 13 20 24 29 24 22 20 26 57 57 62 62 85 31 120 159 166 164 167
175 247 170 172 265 192 196 323 185 237 284 304 63 238 257 59 152 142 155 167 182 218 278 -0 13 17 27 30 37 31 33 40 39 57 74 82 86 99 90 99 112 129 133 130
202 125 51 3 39 7 153 215 8 63 54 12 220 256 149 109 149 161 180 183 191 198 212 2 15 25 37 38 42 43 39 44 54 65 89 98 96 85 101 106 118 112 117 129
351 102 187 107 271 247 334 25 97 332 202 263 281 270 239 209 208 192 201 200 191 193 200 159 16 37 49 52 58 59 56 44 58 72 82 95 101 104 104 106 107 109 111 111
345 114 124 123 206 180 163 228 206 17 201 212 301 262 286 249 184 190 194 202 186 189 188 189 122 58 65 68 72 71 69 63 69 76 81 86 92 98 101 102 104 106 107 107
199 351 181 205 80 18 284 214 177 156 222 235 93 272 336 53 143 170 187 195 182 186 188 193 169 119 94 91 90 81 71 82 77 77 85 94 98 98 101 101 101 102 101 104
113 293 44 318 22 26 243 204 254 111 77 209 156 259 356 73 58 157 174 181 177 183 183 191 177 169 142 120 114 114 103 85 86 87 99 107 105 100 98 100 104 107 108 110
139 209 209 201 121 113 218 217 202 188 192 193 227 283 196 221 210 203 206 188 184 190 192 191 186 183 177 155 141 132 133 124 114 111 111 115 114 114 109 114 117 118 116 117
305 222 222 248 246 192 220 202 200 214 225 207 222 233 246 230 208 206 205 192 186 191 197 196 194 190 186 178 164 152 147 145 138 133 133 127 120 114 111 110 110 109 111 110
225 256 19 285 231 224 238 221 231 220 233 249 258 271 254 252 262 198 197 197 195 198 201 198 199 196 192 188 177 167 162 156 153 150 142 134 128 123 121 118 116 115 115 116
162 167 160 259 10 334 284 214 220 220 213 220 230 242 172 231 223 222 202 201 202 206 205 201 202 200 196 192 188 178 171 166 163 166 159 148 141 137 133 129 128 127 126 126
156 142 170 305 17 269 269 203 220 219 235 226 244 252 220 234 238 234 223 211 211 213 209 209 203 201 197 194 192 187 182 178 172 170 170 164 158 153 148 145 143 139 136 131
162 144 167 226 214 300 301 206 178 181 253 223 233 249 245 241 244 244 221 222 221 221 216 214 206 204 198 197 196 193 188 186 181 178 176 176 175 170 165 161 157 152 148 142
196 243 179 122 222 243 286 53 120 125 293 224 216 235 237 171 225 245 226 221 216 222 217 212 206 203 201 199 201 197 196 193 189 185 184 182 182 185 184 176 171 167 162 157
160 180 209 209 242 277 250 172 158 125 239 331 328 250 204 198 217 148 221 219 216 213 210 211 206 204 203 203 202 202 200 200 194 191 190 190 190 188 193 193 186 182 179 174
166 172 187 196 229 261 157 84 200 183 343 2 359 340 262 220 215 220 211 200 202 206 205 208 204 203 204 205 205 205 206 200 198 197 196 196 196 198 197 198 200 196 194 190
197 187 175 191 208 82 190 233 222 251 287 349 344 340 296 241 229 233 234 203 200 205 205 207 206 205 205 207 209 209 207 202 201 201 203 202 202 204 206 206 204 207 207 205
238 225 237 129 237 246 253 251 253 250 253 259 275 293 292 258 245 240 233 218 207 206 208 207 206 206 207 208 211 214 211 206 206 207 207 208 208 209 211 212 214 216 217 218
184 159 173 255 260 285 272 249 251 254 258 259 259 259 263 269 255 243 236 231 223 215 210 210 211 211 211 211 212 213 212 212 210 211 213 213 214 214 216 218 221 222 224 225
184 176 192 222 214 214 251 256 255 257 260 260 242 251 251 257 257 249 243 237 230 223 215 215 216 218 215 213 214 214 214 215 215 215 216 218 219 218 219 221 223 224 224 229